Total_Precipitation_Accumulation
0.45 0.37 0.46 0.54 0.48 0.52 0.74 0.74 0.67 0.40 0.37 0.38 0.38 0.43 0.45 0.49 0.49 0.49 0.51 0.59 0.75 0.86 0.86 0.87 0.88 0.90 0.87 0.89 1.02 1.09 1.06 1.15 1.23 1.35 1.44 1.41 1.39 1.44 1.55 1.65 1.67 1.69 1.70 1.63
0.47 0.27 0.35 0.44 0.36 0.36 0.41 0.37 0.35 0.27 0.31 0.34 0.35 0.35 0.37 0.38 0.43 0.48 0.49 0.54 0.62 0.71 0.79 0.90 0.97 0.99 0.96 0.92 0.97 1.07 1.05 1.09 1.14 1.27 1.41 1.41 1.35 1.41 1.56 1.68 1.66 1.65 1.68 1.66
0.83 0.33 0.60 0.69 0.43 0.38 0.40 0.39 0.36 0.40 0.40 0.33 0.31 0.34 0.41 0.42 0.44 0.48 0.49 0.50 0.52 0.63 0.77 0.87 0.96 0.98 0.99 0.96 0.99 1.06 1.06 1.08 1.14 1.26 1.34 1.38 1.37 1.41 1.53 1.65 1.67 1.66 1.64 1.64
1.36 0.91 1.21 0.64 0.32 0.32 0.36 0.40 0.39 0.38 0.33 0.33 0.38 0.41 0.46 0.46 0.50 0.51 0.52 0.54 0.54 0.62 0.74 0.78 0.86 0.91 0.94 0.90 1.02 1.09 1.08 1.08 1.14 1.23 1.26 1.35 1.39 1.42 1.55 1.62 1.59 1.59 1.61 1.58
1.84 1.28 0.65 0.35 0.31 0.42 0.51 0.52 0.40 0.32 0.26 0.25 0.30 0.37 0.45 0.41 0.46 0.52 0.53 0.58 0.59 0.63 0.71 0.71 0.78 0.85 0.90 0.86 0.95 1.03 1.07 1.03 1.08 1.17 1.22 1.30 1.35 1.42 1.52 1.62 1.58 1.53 1.52 1.57
2.04 1.47 0.70 0.43 0.28 0.32 0.47 0.66 0.38 0.30 0.30 0.28 0.34 0.53 0.54 0.46 0.44 0.45 0.45 0.50 0.59 0.61 0.64 0.67 0.72 0.77 0.81 0.86 0.89 0.97 1.03 0.95 1.01 1.09 1.16 1.25 1.30 1.36 1.44 1.48 1.51 1.51 1.47 1.49
1.66 1.35 0.54 0.33 0.27 0.34 0.74 0.82 0.42 0.37 0.38 0.39 0.51 0.61 0.54 0.49 0.49 0.49 0.49 0.50 0.54 0.56 0.60 0.66 0.70 0.71 0.75 0.84 0.91 0.94 1.01 0.95 0.99 1.03 1.10 1.20 1.30 1.29 1.37 1.43 1.45 1.51 1.51 1.49
1.24 1.41 0.71 0.35 0.41 0.72 0.85 0.49 0.39 0.38 0.37 0.41 0.41 0.39 0.38 0.42 0.49 0.57 0.55 0.51 0.53 0.55 0.59 0.62 0.65 0.69 0.71 0.77 0.85 0.92 0.97 0.97 1.03 1.08 1.10 1.15 1.25 1.25 1.27 1.38 1.45 1.48 1.52 1.57
1.01 0.85 0.55 0.46 0.57 0.61 0.52 0.45 0.37 0.37 0.37 0.40 0.38 0.37 0.40 0.44 0.49 0.57 0.60 0.57 0.56 0.59 0.58 0.60 0.64 0.70 0.76 0.79 0.81 0.91 0.96 0.97 1.03 1.12 1.15 1.17 1.20 1.22 1.25 1.32 1.41 1.45 1.45 1.47
0.68 0.49 0.37 0.36 0.37 0.36 0.34 0.36 0.34 0.34 0.37 0.40 0.40 0.38 0.43 0.46 0.50 0.54 0.57 0.61 0.62 0.65 0.63 0.64 0.66 0.72 0.80 0.83 0.82 0.89 0.94 0.96 1.02 1.08 1.14 1.18 1.16 1.11 1.13 1.23 1.36 1.38 1.39 1.35
0.53 0.36 0.34 0.31 0.30 0.30 0.27 0.25 0.25 0.26 0.28 0.32 0.36 0.38 0.44 0.47 0.51 0.57 0.60 0.64 0.65 0.68 0.70 0.71 0.70 0.75 0.81 0.84 0.84 0.88 0.87 0.87 0.94 0.98 1.08 1.18 1.18 1.13 1.12 1.13 1.32 1.48 1.43 1.38
0.51 0.38 0.44 0.35 0.28 0.28 0.27 0.25 0.26 0.27 0.25 0.25 0.30 0.37 0.41 0.44 0.48 0.57 0.63 0.65 0.66 0.68 0.71 0.77 0.76 0.78 0.82 0.85 0.83 0.84 0.86 0.84 0.87 0.92 0.98 1.07 1.12 1.17 1.30 1.28 1.31 1.33 1.35 1.44
0.40 0.31 0.31 0.29 0.26 0.26 0.27 0.26 0.25 0.27 0.28 0.27 0.28 0.33 0.39 0.43 0.47 0.54 0.60 0.65 0.69 0.73 0.75 0.79 0.80 0.82 0.85 0.85 0.86 0.85 0.86 0.85 0.87 0.90 0.93 1.00 1.01 1.02 1.17 1.33 1.39 1.35 1.30 1.34
0.25 0.25 0.25 0.22 0.23 0.23 0.24 0.23 0.22 0.23 0.25 0.26 0.28 0.30 0.33 0.37 0.40 0.49 0.61 0.68 0.70 0.71 0.74 0.77 0.79 0.84 0.90 0.92 0.92 0.89 0.86 0.92 0.94 0.91 0.93 0.99 0.98 0.94 0.98 1.07 1.18 1.28 1.33 1.34
0.19 0.23 0.23 0.20 0.20 0.22 0.25 0.24 0.23 0.24 0.25 0.25 0.25 0.27 0.30 0.34 0.40 0.51 0.61 0.65 0.67 0.69 0.73 0.77 0.78 0.85 0.89 0.96 0.98 0.90 0.90 0.93 0.95 0.94 0.95 1.00 0.99 0.97 0.98 0.99 1.02 1.09 1.18 1.29
0.20 0.19 0.18 0.19 0.21 0.23 0.27 0.28 0.28 0.29 0.30 0.30 0.29 0.30 0.32 0.34 0.38 0.45 0.55 0.62 0.66 0.71 0.75 0.77 0.81 0.90 0.94 0.99 1.00 0.96 0.96 1.06 1.07 1.01 0.99 1.03 1.05 1.06 1.05 1.04 1.06 1.05 1.09 1.19
0.25 0.23 0.21 0.21 0.22 0.24 0.29 0.33 0.33 0.33 0.33 0.32 0.32 0.32 0.32 0.32 0.33 0.38 0.48 0.58 0.65 0.69 0.73 0.79 0.84 0.88 0.93 1.00 1.03 1.01 1.01 1.06 1.15 1.07 1.02 1.08 1.14 1.14 1.11 1.12 1.13 1.08 1.05 1.16
0.25 0.26 0.25 0.25 0.25 0.26 0.28 0.32 0.33 0.32 0.33 0.33 0.31 0.30 0.31 0.34 0.36 0.41 0.47 0.53 0.56 0.58 0.65 0.76 0.85 0.90 0.92 1.00 1.06 1.04 1.02 1.05 1.09 1.08 1.07 1.13 1.20 1.19 1.17 1.17 1.16 1.14 1.10 1.15
0.19 0.20 0.21 0.21 0.21 0.23 0.26 0.30 0.30 0.29 0.30 0.30 0.31 0.33 0.35 0.36 0.38 0.42 0.44 0.46 0.50 0.58 0.66 0.75 0.88 0.85 0.87 0.97 1.08 1.06 1.05 1.08 1.11 1.11 1.08 1.19 1.23 1.20 1.19 1.18 1.18 1.15 1.16 1.17
0.17 0.19 0.20 0.21 0.20 0.22 0.25 0.26 0.28 0.27 0.28 0.30 0.32 0.34 0.37 0.38 0.39 0.42 0.43 0.46 0.55 0.68 0.71 0.80 0.84 0.85 0.87 0.90 1.00 1.04 1.10 1.11 1.13 1.14 1.11 1.13 1.17 1.22 1.21 1.20 1.20 1.19 1.22 1.24
0.21 0.21 0.22 0.23 0.22 0.22 0.25 0.26 0.28 0.29 0.29 0.32 0.35 0.38 0.39 0.38 0.40 0.44 0.47 0.50 0.53 0.63 0.71 0.82 0.85 0.90 0.92 0.97 1.03 1.07 1.13 1.14 1.16 1.18 1.17 1.16 1.17 1.20 1.20 1.21 1.22 1.21 1.22 1.24
0.28 0.28 0.28 0.28 0.27 0.27 0.27 0.28 0.30 0.33 0.33 0.37 0.39 0.41 0.40 0.39 0.40 0.44 0.48 0.55 0.59 0.72 0.79 0.81 0.89 1.03 1.12 1.12 1.03 1.06 1.12 1.13 1.15 1.18 1.20 1.17 1.18 1.22 1.20 1.20 1.24 1.22 1.18 1.20
0.33 0.34 0.34 0.34 0.32 0.31 0.30 0.30 0.33 0.37 0.40 0.42 0.43 0.44 0.45 0.45 0.46 0.50 0.55 0.56 0.63 0.79 0.86 0.91 1.06 1.20 1.25 1.11 1.03 1.06 1.10 1.11 1.13 1.18 1.21 1.20 1.19 1.21 1.21 1.20 1.21 1.21 1.19 1.17
0.37 0.39 0.40 0.40 0.38 0.35 0.35 0.37 0.38 0.42 0.47 0.48 0.49 0.51 0.53 0.52 0.51 0.52 0.60 0.68 0.76 0.87 0.92 1.02 1.15 1.24 1.25 1.12 1.05 1.08 1.12 1.12 1.13 1.17 1.20 1.21 1.23 1.23 1.21 1.21 1.22 1.18 1.13 1.11
0.41 0.42 0.42 0.42 0.44 0.45 0.45 0.45 0.45 0.48 0.50 0.51 0.51 0.53 0.56 0.58 0.61 0.62 0.64 0.70 0.81 0.89 0.93 1.01 1.10 1.18 1.17 1.13 1.09 1.11 1.14 1.16 1.20 1.25 1.24 1.24 1.24 1.23 1.22 1.18 1.17 1.16 1.13 1.09
0.44 0.46 0.47 0.48 0.52 0.54 0.53 0.52 0.55 0.55 0.55 0.55 0.55 0.56 0.59 0.62 0.65 0.68 0.71 0.75 0.82 0.89 0.91 0.95 1.02 1.09 1.12 1.12 1.11 1.12 1.14 1.20 1.24 1.22 1.19 1.20 1.19 1.19 1.18 1.15 1.11 1.10 1.09 1.07
0.50 0.50 0.50 0.52 0.54 0.58 0.60 0.61 0.62 0.64 0.64 0.63 0.65 0.64 0.64 0.67 0.70 0.73 0.75 0.80 0.85 0.88 0.91 0.96 1.01 1.07 1.12 1.14 1.16 1.18 1.17 1.16 1.17 1.18 1.19 1.18 1.15 1.16 1.15 1.13 1.11 1.08 1.07 1.05